Guam Agana, GU

1:13 PM ChST on October 21, 2019 (GMT +1000)
Guam International

Weather History for PGUM - August, 2019

Change the Weather History Date:

Saturday, August 31, 2019

  Actual Average Record
Temperature  
Mean Temperature 82 °F -  
Max Temperature 86 °F 84 °F 91 °F (2016)
Min Temperature 77 °F 75 °F 73 °F (2005)
Cooling Degree Days 16    
Growing Degree Days 32 (Base 50)    
Moisture  
Dew Point 76 °F    
Average Humidity 83    
Maximum Humidity 90    
Minimum Humidity 72    
Precipitation  
Precipitation 0.40 in - - ()
Sea Level Pressure  
Sea Level Pressure 29.81 in    
Wind  
Wind Speed 5 mph ()    
Max Wind Speed 12 mph    
Max Gust Speed 17 mph    
Visibility 9.1 miles    
Events Rain    
Averages and records for this station are not official NWS values.
T = Trace of Precipitation, MM = Missing Value Source: Averaged Metar Reports

Daily Weather History Graph

Daily Weather History Graph

Search for Another Location

Airport or City:

Astronomy

Aug. 31, 2019 Rise Set
Actual Time 6:09 AM ChST 6:33 PM ChST
Civil Twilight 5:47 AM ChST 6:54 PM ChST
Nautical Twilight 5:22 AM ChST 7:19 PM ChST
Astronomical Twilight 4:57 AM ChST 7:45 PM ChST
Moon 6:40 AM ChST (8/31) 7:25 PM ChST (8/31)
Length of Visible Light 13h 06m
Length of Day
12h 23m
New Moon, 1% of the Moon is Illuminated
Aug 31
New Moon
Sep 6
First Quarter
Sep 14
Full
Sep 22
Last Quarter
Sep 29
New

Hourly Weather History & Observations

Time (ChST) Temp. Heat Index Dew Point Humidity Pressure Visibility Wind Dir Wind Speed Gust Speed Precip Events Conditions
12:54 AM 80.1 °F 85.8 °F 77.0 °F 90% 29.80 in 10.0 mi Calm Calm - N/A   Scattered Clouds
1:54 AM 80.1 °F 85.4 °F 75.9 °F 87% 29.78 in 10.0 mi ESE 4.6 mph - N/A   Partly Cloudy
2:54 AM 79.0 °F - 73.0 °F 82% 29.77 in 10.0 mi ESE 3.5 mph - 0.00 in   Clear
3:54 AM 79.0 °F - 75.0 °F 88% 29.77 in 10.0 mi SE 3.5 mph - 0.09 in   Partly Cloudy
4:54 AM 80.1 °F 85.4 °F 75.9 °F 87% 29.78 in 8.0 mi East 10.4 mph 17.3 mph N/A   Scattered Clouds
5:54 AM 79.0 °F - 75.9 °F 90% 29.78 in 10.0 mi East 4.6 mph - 0.03 in   Scattered Clouds
6:54 AM 81.0 °F 87.9 °F 77.0 °F 88% 29.80 in 10.0 mi East 3.5 mph - N/A   Clear
7:54 AM 82.9 °F 93.8 °F 79.0 °F 88% 29.81 in 10.0 mi East 5.8 mph - 0.00 in   Partly Cloudy
8:54 AM 84.0 °F 93.7 °F 77.0 °F 79% 29.83 in 10.0 mi ESE 9.2 mph - N/A   Scattered Clouds
9:54 AM 84.9 °F 95.3 °F 77.0 °F 77% 29.82 in 10.0 mi SE 9.2 mph - N/A   Partly Cloudy
10:54 AM 86.0 °F 96.9 °F 77.0 °F 74% 29.81 in 10.0 mi East 11.5 mph - 0.01 in   Scattered Clouds
11:52 AM 84.2 °F 96.1 °F 78.8 °F 84% 29.83 in 7.0 mi ESE 9.2 mph - 0.00 in Rain Light Rain
11:54 AM 84.0 °F 94.8 °F 78.1 °F 82% 29.80 in 7.0 mi ESE 9.2 mph - 0.00 in Rain Light Rain
12:03 PM 86.0 °F 98.3 °F 78.1 °F 77% 29.82 in 10.0 mi SE 9.2 mph - 0.00 in   Mostly Cloudy
12:54 PM 86.0 °F 96.0 °F 75.9 °F 72% 29.79 in 10.0 mi ESE 9.2 mph - 0.00 in   Scattered Clouds
1:54 PM 84.0 °F 93.7 °F 77.0 °F 79% 29.78 in 8.0 mi ESE 8.1 mph - 0.00 in Rain Light Rain
2:54 PM 86.0 °F 96.0 °F 75.9 °F 72% 29.77 in 10.0 mi SSE 6.9 mph - 0.00 in   Clear
3:54 PM 82.9 °F 90.8 °F 75.9 °F 79% 29.77 in 10.0 mi ESE 4.6 mph - N/A   Clear
4:54 PM 84.0 °F 92.6 °F 75.9 °F 76% 29.77 in 10.0 mi ESE 6.9 mph - N/A   Clear
5:45 PM 82.9 °F 90.8 °F 75.9 °F 79% 29.80 in 10.0 mi ESE 4.6 mph - N/A   Partly Cloudy
5:54 PM 82.9 °F 90.8 °F 75.9 °F 79% 29.78 in 10.0 mi ESE 4.6 mph - N/A   Clear
6:25 PM 82.9 °F 90.8 °F 75.9 °F 79% 29.82 in 10.0 mi ESE 4.6 mph - N/A   Partly Cloudy
6:54 PM 82.4 °F 89.5 °F 75.2 °F 79% 29.83 in 10.0 mi ESE 3.5 mph - N/A   Clear
7:54 PM 81.0 °F 87.3 °F 75.9 °F 85% 29.83 in 10.0 mi ENE 6.9 mph - 0.01 in   Partly Cloudy
8:54 PM 81.0 °F 87.9 °F 77.0 °F 88% 29.85 in 10.0 mi NE 3.5 mph - 0.00 in   Mostly Cloudy
9:39 PM 77.0 °F - 73.9 °F 90% 29.89 in 1.8 mi East 9.2 mph - 0.09 in Rain Heavy Rain
9:50 PM 77.0 °F - 73.4 °F 89% 29.87 in 2.0 mi SSE 3.5 mph - 0.23 in Rain Heavy Rain
10:54 PM 79.0 °F - 75.0 °F 88% 29.86 in 10.0 mi Calm Calm - 0.03 in   Partly Cloudy
11:54 PM 79.0 °F - 75.0 °F 88% 29.85 in 10.0 mi East 3.5 mph - N/A   Clear